FW7501 Weather Reports


time (UTC)temp
C
wind
direction
speed
KPH
gust
KPH
rain 1hr
cm
rain 24hr
cm
rain mn
cm
humidity
%
barometer
mb
20260905034507 15 310 17.7 40.2 0.00 0.18 0.18 64 1005.3
20260905034011 15 308 24.1 45.1 0.00 0.18 0.18 63 1005.3
20260905033507 15 310 27.4 45.1 0.00 0.18 0.18 62 1005.2
20260905033034 15 295 30.6 51.5 0.00 0.18 0.18 63 1005.4
20260905032514 15 290 30.6 51.5 0.00 0.18 0.18 58 1005.5
20260905032010 15 313 27.4 51.5 0.00 0.18 0.18 60 1005.5
20260905031531 15 317 38.6 51.5 0.00 0.18 0.18 58 1005.4
20260905031014 15 312 33.8 53.1 0.00 0.18 0.18 59 1005.5
20260905030514 15 316 37.0 48.3 0.00 0.18 0.18 59 1005.3
20260905030032 15 312 30.6 45.1 0.00 0.18 0.18 60 1005.4
20260905025510 16 339 22.5 46.7 0.00 0.18 0.18 62 1005.3
20260905025018 15 310 29.0 46.7 0.00 0.18 0.18 60 1005.4
20260905024514 15 318 29.0 45.1 0.00 0.18 0.18 60 1005.3
20260905024006 15 299 24.1 41.8 0.00 0.18 0.18 62 1005.3
20260905023510 15 334 27.4 41.8 0.00 0.18 0.18 64 1005.3
20260905023018 13 297 22.5 43.5 0.00 0.18 0.18 72 1005.5
20260905022511 13 312 22.5 49.9 0.00 0.18 0.18 71 1005.5
20260905022015 13 301 19.3 49.9 0.00 0.18 0.18 68 1005.7
20260905021516 14 313 20.9 33.8 0.00 0.18 0.18 68 1005.7
20260905021014 14 329 19.3 38.6 0.00 0.18 0.18 69 1005.7
20260905020513 14 287 20.9 46.7 0.00 0.18 0.18 69 1005.7
20260905020012 15 304 27.4 46.7 0.00 0.18 0.18 68 1005.7
20260905015520 15 335 22.5 43.5 0.00 0.18 0.18 69 1005.7
20260905015012 15 304 27.4 45.1 0.00 0.18 0.18 68 1005.8
20260905014535 15 323 30.6 46.7 0.00 0.18 0.18 68 1005.7
20260905014015 15 320 29.0 48.3 0.00 0.18 0.18 70 1005.7
20260905013508 15 314 30.6 48.3 0.00 0.18 0.18 68 1005.8
20260905013016 15 311 27.4 45.1 0.00 0.18 0.18 69 1005.9
20260905012509 15 302 24.1 43.5 0.00 0.18 0.18 70 1006.0
20260905012020 15 316 25.7 43.5 0.00 0.18 0.18 70 1006.0
20260905011522 14 297 29.0 43.5 0.00 0.18 0.18 70 1006.2
20260905011013 14 311 24.1 41.8 0.00 0.18 0.18 72 1006.4
20260905010513 14 343 25.7 45.1 0.00 0.18 0.18 72 1006.0
20260905010040 13 308 24.1 45.1 0.00 0.18 0.18 75 1006.0
20260905005509 13 316 22.5 49.9 0.00 0.18 0.18 79 1005.9
20260905005019 13 323 25.7 49.9 0.00 0.18 0.18 79 1005.8
20260905004526 13 320 27.4 45.1 0.00 0.18 0.18 80 1005.8
20260905004015 13 343 29.0 46.7 0.00 0.18 0.18 82 1005.7
20260905003515 13 332 24.1 49.9 0.00 0.18 0.18 82 1005.7
20260905003024 12 321 27.4 49.9 0.00 0.18 0.18 82 1005.6
20260905002519 12 340 30.6 49.9 0.00 0.18 0.18 83 1005.5
20260905002016 12 330 27.4 49.9 0.00 0.15 0.15 83 1005.7
20260905001514 12 354 29.0 51.5 0.00 0.15 0.15 83 1005.7
20260905001012 12 357 32.2 51.5 0.00 0.15 0.15 83 1005.6
20260905000517 12 343 29.0 49.9 0.00 0.15 0.15 83 1005.6
20260905000032 12 335 27.4 45.1 0.00 0.15 0.15 83 1005.9
20260904235513 12 349 32.2 54.7 0.00 0.15 0.15 83 1005.6
20260904235013 12 6 35.4 54.7 0.00 0.15 0.15 83 1005.6
20260904234531 12 351 32.2 51.5 0.00 0.15 0.15 83 1005.7
20260904234017 12 10 37.0 51.5 0.00 0.15 0.15 83 1005.8
20260904233515 12 346 30.6 51.5 0.00 0.15 0.15 83 1005.9
20260904233034 12 11 25.7 43.5 0.00 0.15 0.15 84 1005.8
20260904232516 12 314 27.4 53.1 0.00 0.15 0.15 84 1006.0
20260904232006 12 340 24.1 53.1 0.00 0.15 0.15 84 1005.8
20260904231509 12 26 17.7 38.6 0.00 0.15 0.15 84 1005.7
20260904231003 12 333 24.1 41.8 0.00 0.15 0.15 84 1005.9
20260904230507 12 343 24.1 41.8 0.00 0.15 0.15 84 1006.1
20260904230006 12 4 16.1 35.4 0.00 0.15 0.15 84 1006.0
20260904225502 12 7 22.5 41.8 0.00 0.15 0.15 84 1006.1
20260904225003 12 360 25.7 41.8 0.00 0.15 0.15 84 1006.3
20260904224505 12 28 16.1 46.7 0.00 0.13 0.13 84 1006.7
20260904224005 12 357 22.5 48.3 0.00 0.13 0.13 84 1006.8
20260904223503 12 346 24.1 48.3 0.00 0.13 0.13 84 1006.5
20260904223004 12 351 22.5 45.1 0.00 0.13 0.13 85 1006.7
20260904222504 11 338 22.5 45.1 0.00 0.13 0.13 85 1006.9
20260904222004 11 350 22.5 41.8 0.00 0.13 0.13 85 1006.5
20260904221519 11 28 22.5 38.6 0.00 0.13 0.13 85 1006.6
20260904221006 11 339 25.7 48.3 0.00 0.13 0.13 85 1006.8
20260904220504 11 5 12.9 48.3 0.00 0.13 0.13 85 1006.0
20260904220019 11 356 19.3 38.6 0.00 0.13 0.13 85 1007.1
20260904215510 11 4 20.9 43.5 0.00 0.13 0.13 85 1006.7
20260904215003 11 19 17.7 43.5 0.00 0.13 0.13 85 1006.7
20260904214505 11 1 20.9 48.3 0.00 0.13 0.13 85 1006.8
20260904214005 11 9 19.3 49.9 0.00 0.13 0.13 85 1006.8
20260904213504 11 1 24.1 49.9 0.00 0.13 0.13 85 1006.8
20260904213006 11 15 24.1 45.1 0.00 0.10 0.10 85 1006.7
20260904212504 11 347 20.9 32.2 0.00 0.10 0.10 85 1006.7
20260904212004 11 23 12.9 25.7 0.00 0.10 0.10 85 1006.6
20260904211508 11 12 9.7 40.2 0.00 0.10 0.10 85 1006.4
20260904211004 11 39 12.9 40.2 0.00 0.10 0.10 85 1006.7
20260904210504 11 11 17.7 37.0 0.00 0.10 0.10 85 1007.1
20260904210019 11 352 17.7 37.0 0.00 0.10 0.10 84 1007.5
20260904205506 11 55 14.5 43.5 0.00 0.10 0.10 84 1007.7
20260904205009 11 37 24.1 46.7 0.00 0.10 0.10 84 1008.0
20260904204512 11 4 27.4 51.5 0.00 0.10 0.10 83 1007.7
20260904204004 11 345 29.0 51.5 0.00 0.10 0.10 83 1007.6
20260904203504 11 8 24.1 46.7 0.00 0.10 0.10 83 1007.2
20260904203006 11 2 19.3 43.5 0.00 0.08 0.08 83 1007.3
20260904202503 11 24 14.5 43.5 0.00 0.08 0.08 84 1007.3
20260904202008 11 341 25.7 40.2 0.00 0.08 0.08 84 1007.1
20260904201508 11 328 12.9 32.2 0.00 0.08 0.08 84 1007.2
20260904201006 11 339 19.3 32.2 0.00 0.08 0.08 84 1007.5
20260904200507 11 1 19.3 32.2 0.00 0.08 0.08 84 1007.5
20260904200005 11 347 16.1 30.6 0.00 0.08 0.08 84 1007.8
20260904195508 11 8 17.7 40.2 0.00 0.08 0.08 84 1007.7
20260904195007 11 13 20.9 40.2 0.00 0.08 0.08 84 1007.7
20260904194514 11 2 9.7 40.2 0.00 0.08 0.08 84 1007.5
20260904194009 11 357 16.1 40.2 0.00 0.08 0.08 84 1007.3
20260904193505 11 6 19.3 33.8 0.00 0.08 0.08 84 1007.5
20260904193021 11 355 12.9 33.8 0.00 0.08 0.08 84 1007.6
20260904192506 11 12 17.7 33.8 0.00 0.08 0.08 84 1007.6
20260904192004 11 22 16.1 35.4 0.00 0.08 0.08 84 1007.8
20260904191505 11 15 17.7 35.4 0.00 0.08 0.08 84 1007.9
20260904191005 11 360 16.1 30.6 0.00 0.08 0.08 84 1007.9
20260904190507 11 344 16.1 32.2 0.00 0.08 0.08 83 1007.9
20260904190008 11 5 19.3 33.8 0.00 0.08 0.08 83 1008.3
20260904185507 11 8 16.1 35.4 0.00 0.08 0.08 82 1008.5
20260904185007 11 345 22.5 35.4 0.00 0.08 0.08 81 1008.6
20260904184514 11 353 17.7 35.4 0.00 0.08 0.08 82 1008.5
20260904184004 11 360 17.7 38.6 0.00 0.08 0.08 82 1007.9
20260904183509 11 358 19.3 38.6 0.00 0.08 0.08 82 1007.9
20260904183009 11 13 20.9 37.0 0.00 0.08 0.08 81 1007.9
20260904182516 11 333 22.5 41.8 0.00 0.08 0.08 81 1008.2
20260904182013 11 335 24.1 41.8 0.00 0.08 0.08 81 1008.3
20260904181510 12 356 20.9 40.2 0.03 0.08 0.08 80 1008.1
20260904181011 12 12 22.5 41.8 0.00 0.05 0.05 81 1007.9
20260904180512 12 12 24.1 45.1 0.00 0.05 0.05 81 1007.9
20260904180038 11 14 24.1 46.7 0.00 0.05 0.05 82 1007.9
20260904175506 11 29 29.0 46.7 0.00 0.05 0.05 83 1007.9
20260904175008 11 16 19.3 40.2 0.00 0.05 0.05 84 1007.7
20260904174527 11 12 19.3 38.6 0.00 0.05 0.05 84 1007.6
20260904174010 11 15 14.5 35.4 0.00 0.05 0.05 84 1007.8
20260904173510 11 11 19.3 37.0 0.00 0.05 0.05 84 1007.8
20260904173016 11 31 14.5 37.0 0.03 0.05 0.05 84 1007.8
20260904172510 11 11 17.7 37.0 0.03 0.05 0.05 84 1008.0
20260904172011 11 359 12.9 43.5 0.03 0.05 0.05 84 1008.3
20260904171523 11 8 19.3 43.5 0.00 0.03 0.03 84 1009.0
20260904171006 11 6 22.5 38.6 0.00 0.03 0.03 84 1009.2
20260904170512 11 14 16.1 43.5 0.00 0.03 0.03 84 1009.1
20260904170020 11 316 22.5 45.1 0.03 0.03 0.03 84 1009.5
20260904165506 11 341 19.3 46.7 0.03 0.03 0.03 85 1009.5
20260904165015 11 35 20.9 51.5 0.03 0.03 0.03 85 1009.8
20260904164519 11 345 20.9 51.5 0.03 0.03 0.03 85 1010.1
20260904164015 11 337 17.7 37.0 0.03 0.03 0.03 85 1009.8
20260904163516 11 13 17.7 46.7 0.03 0.03 0.03 85 1009.9
20260904163034 11 355 24.1 46.7 0.00 0.00 0.00 85 1010.2
20260904162508 11 72 17.7 51.5 0.00 0.00 0.00 85 1010.1
20260904162009 11 8 22.5 51.5 0.00 0.00 0.00 84 1010.6
20260904161517 11 3 20.9 45.1 0.00 0.00 0.00 84 1011.0
20260904161012 11 19 20.9 45.1 0.00 0.00 0.00 84 1011.0
20260904160510 11 8 14.5 40.2 0.00 0.00 0.00 83 1011.0
20260904160028 11 358 22.5 40.2 0.00 0.00 0.00 83 1011.3
20260904155512 11 29 20.9 40.2 0.00 0.00 0.00 82 1011.4
20260904155007 12 345 20.9 40.2 0.00 0.00 0.00 82 1011.6
20260904154532 12 326 14.5 43.5 0.00 0.00 0.00 81 1011.7
20260904154013 12 2 20.9 46.7 0.00 0.00 0.00 81 1011.7
20260904153517 12 326 22.5 46.7 0.00 0.00 0.00 81 1011.5
20260904153032 12 351 22.5 40.2 0.00 0.00 0.00 81 1011.5
20260904152511 12 2 25.7 40.2 0.00 0.00 0.00 80 1011.7
20260904152006 12 4 20.9 38.6 0.00 0.00 0.00 80 1011.7
20260904151514 12 341 20.9 53.1 0.00 0.00 0.00 80 1011.7
20260904151015 12 331 22.5 53.1 0.00 0.00 0.00 80 1011.9
20260904150512 12 56 24.1 49.9 0.00 0.00 0.00 80 1011.9
20260904150020 12 6 20.9 45.1 0.00 0.00 0.00 81 1011.9
20260904145513 12 49 19.3 37.0 0.00 0.00 0.00 81 1011.9
20260904145013 12 15 20.9 37.0 0.00 0.00 0.00 81 1012.1
20260904144516 12 8 16.1 37.0 0.00 0.00 0.00 82 1012.2
20260904144015 12 5 14.5 30.6 0.00 0.00 0.00 82 1012.2
20260904143513 11 333 12.9 38.6 0.00 0.00 0.00 82 1012.0
20260904143034 11 18 20.9 38.6 0.00 0.00 0.00 81 1012.1
20260904142519 11 4 22.5 38.6 0.00 0.00 0.00 82 1012.0
20260904142006 11 35 14.5 43.5 0.00 0.00 0.00 82 1011.9
20260904141511 11 2 19.3 43.5 0.00 0.00 0.00 82 1012.0
20260904141004 11 359 14.5 41.8 0.00 0.00 0.00 82 1012.0
20260904140510 11 20 17.7 41.8 0.00 0.00 0.00 82 1012.1
20260904140011 11 9 20.9 37.0 0.00 0.00 0.00 82 1012.3
20260904135503 11 24 16.1 46.7 0.00 0.00 0.00 81 1012.3
20260904135008 12 10 22.5 49.9 0.00 0.00 0.00 80 1012.4
20260904134508 12 15 24.1 49.9 0.00 0.00 0.00 79 1012.6
20260904134002 12 20 20.9 59.5 0.00 0.00 0.00 79 1012.7
20260904133504 12 10 29.0 61.2 0.00 0.00 0.00 79 1012.8
20260904133007 12 4 30.6 61.2 0.00 0.00 0.00 79 1012.8
20260904132510 12 10 29.0 48.3 0.00 0.00 0.00 79 1013.0
20260904132009 12 14 20.9 48.3 0.00 0.00 0.00 78 1013.0
20260904131504 12 58 24.1 57.9 0.00 0.00 0.00 77 1013.2
20260904131004 12 339 27.4 57.9 0.00 0.00 0.00 77 1013.3
20260904130505 13 345 35.4 51.5 0.00 0.00 0.00 77 1013.4
20260904130018 12 9 30.6 51.5 0.00 0.00 0.00 77 1013.2
20260904125509 12 33 25.7 53.1 0.00 0.00 0.00 76 1013.3
20260904125005 12 344 32.2 56.3 0.00 0.00 0.00 76 1013.1
20260904124518 12 1 22.5 56.3 0.00 0.00 0.00 76 1013.3
20260904124004 13 349 29.0 51.5 0.00 0.00 0.00 75 1013.3
20260904123514 13 351 25.7 57.9 0.00 0.00 0.00 75 1013.3
20260904123012 13 341 29.0 61.2 0.00 0.00 0.00 75 1013.3
20260904122504 13 329 29.0 66.0 0.00 0.00 0.00 75 1013.2
20260904122005 13 8 27.4 66.0 0.00 0.00 0.00 75 1013.0
20260904121506 13 128 24.1 49.9 0.00 0.00 0.00 75 1013.1
20260904121004 13 18 27.4 49.9 0.00 0.00 0.00 75 1013.2
20260904120515 13 4 32.2 51.5 0.00 0.00 0.00 74 1013.6
20260904120011 13 24 29.0 51.5 0.00 0.00 0.00 74 1013.1
20260904115508 13 354 22.5 38.6 0.00 0.00 0.00 74 1013.4
20260904115010 13 21 20.9 38.6 0.00 0.00 0.00 74 1013.2
20260904114509 13 349 22.5 43.5 0.00 0.00 0.00 74 1013.2
20260904114011 13 330 22.5 46.7 0.00 0.00 0.00 74 1013.0
20260904113508 13 17 25.7 46.7 0.00 0.00 0.00 74 1013.3
20260904113007 13 8 24.1 46.7 0.00 0.00 0.00 74 1013.5
20260904112513 13 20 22.5 43.5 0.00 0.00 0.00 74 1013.4
20260904112009 12 37 24.1 43.5 0.00 0.00 0.00 73 1013.6
20260904111530 12 10 25.7 46.7 0.00 0.00 0.00 74 1013.6
20260904111011 12 11 25.7 46.7 0.00 0.00 0.00 73 1013.8
20260904110506 12 27 29.0 41.8 0.00 0.00 0.00 74 1013.9
20260904110024 12 29 14.5 30.6 0.00 0.00 0.00 73 1014.0
20260904105506 12 3 19.3 37.0 0.00 0.00 0.00 73 1014.1
20260904105008 12 23 17.7 35.4 0.00 0.00 0.00 73 1014.2
20260904104510 12 14 14.5 30.6 0.00 0.00 0.00 73 1014.1
20260904104008 12 347 11.3 32.2 0.00 0.00 0.00 73 1014.2
20260904103513 12 346 12.9 32.2 0.00 0.00 0.00 73 1014.4
20260904103021 12 337 14.5 29.0 0.00 0.00 0.00 73 1014.5
20260904102507 12 339 17.7 32.2 0.00 0.00 0.00 72 1014.5
20260904102013 12 12 20.9 32.2 0.00 0.00 0.00 72 1014.5
20260904101514 12 346 19.3 32.2 0.00 0.00 0.00 72 1014.6
20260904101018 12 360 16.1 30.6 0.00 0.00 0.00 73 1014.8
20260904100517 12 335 17.7 30.6 0.00 0.00 0.00 73 1015.0
20260904100012 12 348 16.1 29.0 0.00 0.00 0.00 73 1014.9
20260904095518 12 8 14.5 32.2 0.00 0.00 0.00 72 1015.0
20260904095012 12 30 14.5 32.2 0.00 0.00 0.00 72 1015.0
20260904094513 12 335 17.7 45.1 0.00 0.00 0.00 72 1015.0
20260904094013 12 360 22.5 43.5 0.00 0.00 0.00 72 1014.9
20260904093510 12 3 22.5 43.5 0.00 0.00 0.00 72 1015.0
20260904093018 12 339 24.1 43.5 0.00 0.00 0.00 72 1014.9
20260904092519 12 349 22.5 35.4 0.00 0.00 0.00 72 1014.8
20260904092010 12 14 16.1 37.0 0.00 0.00 0.00 73 1014.7
20260904091523 11 10 22.5 41.8 0.00 0.00 0.00 72 1014.7
20260904091011 11 342 20.9 41.8 0.00 0.00 0.00 73 1014.6
20260904090514 11 350 20.9 38.6 0.00 0.00 0.00 73 1014.6
20260904090042 11 26 19.3 49.9 0.00 0.00 0.00 73 1014.5
20260904085507 11 21 19.3 49.9 0.00 0.00 0.00 72 1014.4
20260904085022 11 14 25.7 49.9 0.00 0.00 0.00 73 1014.3
20260904084524 11 350 19.3 38.6 0.00 0.00 0.00 73 1014.5
20260904084007 11 7 19.3 33.8 0.00 0.00 0.00 73 1014.4
20260904083517 11 29 11.3 32.2 0.00 0.00 0.00 73 1014.3
20260904083011 11 10 14.5 27.4 0.00 0.00 0.00 74 1014.4
20260904082519 11 33 11.3 37.0 0.00 0.00 0.00 73 1014.6
20260904082011 11 10 14.5 37.0 0.00 0.00 0.00 73 1014.6
20260904081529 11 6 16.1 41.8 0.00 0.00 0.00 72 1014.7
20260904081013 11 8 19.3 46.7 0.00 0.00 0.00 72 1014.9
20260904080516 11 22 22.5 46.7 0.00 0.00 0.00 72 1014.9
20260904080012 11 355 22.5 35.4 0.00 0.00 0.00 72 1015.0
20260904075516 11 10 16.1 33.8 0.00 0.00 0.00 72 1015.0
20260904075013 11 351 16.1 37.0 0.00 0.00 0.00 71 1015.0
20260904074532 11 22 17.7 51.5 0.00 0.00 0.00 71 1015.2
20260904074015 11 8 20.9 51.5 0.00 0.00 0.00 71 1015.3
20260904073514 11 12 19.3 43.5 0.00 0.00 0.00 71 1015.3
20260904073031 11 28 24.1 48.3 0.00 0.00 0.00 71 1015.1
20260904072512 11 31 27.4 54.7 0.00 0.00 0.00 71 1015.2
20260904072027 11 322 27.4 54.7 0.00 0.00 0.00 71 1015.2
20260904071530 11 15 20.9 45.1 0.00 0.00 0.00 71 1015.1
20260904071012 11 21 20.9 37.0 0.00 0.00 0.00 71 1015.2
20260904070517 11 345 14.5 37.0 0.00 0.00 0.00 71 1015.3
20260904070032 11 8 12.9 45.1 0.00 0.00 0.00 71 1015.3
20260904065509 11 345 20.9 45.1 0.00 0.00 0.00 70 1015.3
20260904065019 11 62 20.9 37.0 0.00 0.00 0.00 70 1015.6
20260904064525 11 345 19.3 33.8 0.00 0.00 0.00 70 1015.7
20260904064021 11 52 16.1 35.4 0.00 0.00 0.00 70 1015.8
20260904063520 11 12 14.5 35.4 0.00 0.00 0.00 70 1016.0
20260904063032 11 359 16.1 41.8 0.00 0.00 0.00 69 1015.9
20260904062518 11 336 11.3 41.8 0.00 0.00 0.00 70 1016.0
20260904062015 11 18 8.0 30.6 0.00 0.00 0.00 70 1016.3
20260904061525 11 16 14.5 30.6 0.00 0.00 0.00 69 1016.5
20260904061018 12 8 12.9 30.6 0.00 0.00 0.00 68 1016.5
20260904060516 12 38 11.3 30.6 0.00 0.00 0.00 69 1016.5
20260904060035 12 353 14.5 29.0 0.00 0.00 0.00 69 1016.7
20260904055517 12 13 14.5 24.1 0.00 0.00 0.00 69 1016.9
20260904055015 11 346 11.3 38.6 0.00 0.00 0.00 69 1017.0
20260904054544 11 9 12.9 38.6 0.00 0.00 0.00 68 1017.0
20260904054015 12 333 14.5 29.0 0.00 0.00 0.00 67 1017.1
20260904053515 12 5 17.7 30.6 0.00 0.00 0.00 67 1017.1
20260904053043 12 358 14.5 30.6 0.00 0.00 0.00 67 1017.1
20260904052514 12 354 19.3 32.2 0.00 0.00 0.00 66 1017.2
20260904052007 12 5 19.3 37.0 0.00 0.00 0.00 67 1017.2
20260904051510 11 339 22.5 37.0 0.00 0.00 0.00 67 1017.3
20260904051003 11 341 19.3 37.0 0.00 0.00 0.00 67 1017.3
20260904050508 12 351 19.3 37.0 0.00 0.00 0.00 67 1017.5
20260904050004 12 8 24.1 37.0 0.00 0.00 0.00 66 1017.4
20260904045501 12 334 16.1 32.2 0.00 0.00 0.00 66 1017.4
20260904045007 12 343 20.9 37.0 0.00 0.00 0.00 67 1017.3
20260904044503 12 31 14.5 37.0 0.00 0.00 0.00 67 1017.4
20260904044005 12 2 17.7 45.1 0.00 0.00 0.00 66 1017.3
20260904043504 12 8 17.7 45.1 0.00 0.00 0.00 66 1017.1
20260904043003 12 10 20.9 33.8 0.00 0.00 0.00 66 1017.1
20260904042503 12 341 22.5 37.0 0.00 0.00 0.00 65 1017.1
20260904042004 13 333 22.5 37.0 0.00 0.00 0.00 65 1017.1
20260904041506 13 343 25.7 37.0 0.00 0.00 0.00 65 1017.1
20260904041006 12 348 24.1 37.0 0.00 0.00 0.00 64 1017.1
20260904040502 12 325 20.9 37.0 0.00 0.00 0.00 66 1016.8
20260904040009 12 9 22.5 37.0 0.00 0.00 0.00 66 1017.0
20260904035504 12 354 19.3 33.8 0.00 0.00 0.00 66 1017.4
20260904035004 12 351 17.7 35.4 0.00 0.00 0.00 68 1017.3